Location: Naloco
(16.5478°S, 37.1017°E)
Time: 00:36:01
(UTC+00:00)

GPS 2-12 Rocket1 - Pass Details

Date: 13 August 2020
Orbit: 586 x 652 km, 20.0° (Epoch: 23 September)

Event Time Altitude Azimuth Distance (km) Brightness Sun altitude
Rises 15:32:38 0° 265° (W) 2,821 8.1 -3.2°
Reaches altitude 10° 15:35:01 10° 260° (W) 1,913 6.9 -3.7°
Maximum altitude 15:39:23 54° 182° (S) 714 3.3 -4.8°
Drops below altitude 10° 15:43:44 10° 104° (ESE) 1,902 4.9 -5.8°
Enters shadow 15:44:22 - 102° (ESE) 2,141 5.1 -5.9°
